Lapse_Rate
5.2 5.3 5.7 5.6 5.9 5.7 5.8 4.1 3.5 1.7 1.8 2.4 2.0 2.4 3.6 2.9 2.6 3.7 4.8 5.9 7.5 4.9
5.0 5.2 5.7 5.7 5.9 5.2 4.8 5.1 4.9 3.9 3.4 2.5 2.7 2.1 1.9 2.8 3.1 4.2 4.4 3.2 6.3 6.2
5.7 5.7 5.4 5.3 6.1 6.0 4.8 5.1 4.1 3.8 3.8 4.2 3.1 1.9 2.0 2.3 2.4 3.0 4.3 3.6 3.6 4.5
5.0 5.7 5.6 5.4 5.7 5.9 5.1 4.6 4.5 4.5 3.5 3.2 3.5 3.7 3.4 3.4 3.4 4.6 4.1 3.8 3.8 4.2
4.5 5.0 5.1 5.6 5.5 5.5 5.3 4.0 4.1 3.0 2.8 3.2 2.9 2.6 2.6 2.1 2.8 2.6 2.8 3.4 4.6 4.9
4.4 4.7 4.8 4.7 5.2 5.5 4.6 4.1 3.2 2.5 2.9 2.7 2.4 2.8 2.4 2.9 2.9 2.6 3.4 4.3 5.0 5.2
5.3 4.8 4.9 4.4 4.2 4.4 4.5 3.7 3.3 2.2 2.1 3.1 2.5 2.7 2.7 2.7 3.0 3.7 3.7 3.9 4.5 4.9
5.9 4.8 4.4 4.9 4.5 4.4 3.6 3.2 3.4 2.5 2.7 2.3 3.2 2.4 2.8 2.9 3.7 3.9 3.9 3.6 3.8 4.0
6.0 5.7 5.2 5.1 4.8 4.3 3.5 3.0 2.5 3.1 3.1 1.6 2.2 1.4 1.3 2.4 2.8 3.1 3.6 3.6 3.4 3.7
6.6 6.0 5.3 5.0 4.9 4.4 3.8 3.7 2.7 1.7 2.9 2.5 1.2 1.3 1.7 1.5 1.9 2.2 2.3 2.7 3.3 3.0
6.7 6.3 5.4 4.1 4.1 3.9 3.7 3.1 3.1 2.3 1.9 2.5 1.2 0.7 2.0 1.4 1.7 1.3 1.4 2.2 2.3 1.7
6.4 5.3 4.5 2.1 2.3 2.6 2.8 2.6 2.5 1.9 1.4 1.0 0.2 0.5 0.8 1.3 1.3 1.2 0.9 1.4 1.5 1.6
5.2 3.6 2.3 1.1 -0.0 0.0 1.2 1.5 1.4 -0.2 0.4 1.4 0.5 0.5 0.8 0.8 1.4 1.2 0.9 0.8 1.4 1.7
1.8 0.8 0.6 0.5 0.0 0.6 1.1 0.9 0.1 -0.1 -0.1 0.9 0.7 0.8 0.4 0.5 1.3 1.3 0.8 1.2 1.7 2.3
Wind_Speed
7 5 6 7 7 7 7 5 4 4 6 6 5 4 6 7 11 11 12 10 11 8
7 7 7 8 6 4 6 6 7 5 4 7 9 10 10 8 10 12 14 12 8 5
7 6 7 8 9 8 4 6 7 5 6 8 8 12 13 10 12 13 12 11 12 2
8 7 6 7 9 8 8 6 5 4 4 4 5 8 11 11 13 14 12 11 14 11
10 9 7 8 9 9 10 6 4 4 3 5 6 6 8 9 9 14 13 14 14 13
8 10 9 10 9 9 10 9 6 3 4 6 4 5 6 9 11 11 14 15 15 15
9 9 10 8 8 9 9 10 8 7 6 6 7 6 6 8 9 10 10 13 14 14
13 10 8 7 7 8 8 9 9 8 7 7 8 7 9 8 11 10 9 8 10 11
12 11 8 8 7 7 9 9 8 8 8 9 6 10 13 12 9 10 11 10 7 8
11 12 11 8 8 7 8 9 9 7 9 8 7 14 16 17 11 11 10 10 10 7
11 11 11 9 9 7 6 8 9 7 7 6 5 14 14 14 11 10 11 12 12 12
11 11 9 8 7 7 6 7 8 5 5 6 4 15 18 13 9 10 10 10 11 13
9 8 10 8 7 4 6 7 5 2 4 6 6 16 19 15 7 10 9 9 10 18
5 6 7 9 5 5 5 4 4 4 3 5 9 13 20 20 10 9 9 9 8 8
Wind_Direction
313 318 320 319 319 312 313 314 296 186 159 191 197 199 210 180 185 179 195 220 259 195
285 298 316 327 314 300 298 291 284 277 226 168 190 174 159 191 170 177 186 162 212 217
284 281 300 307 304 303 287 297 294 266 252 230 200 170 163 173 164 163 174 157 136 159
275 284 297 291 292 294 307 307 284 247 201 192 193 194 168 172 170 173 162 151 150 147
279 278 273 274 273 281 278 273 274 265 187 201 170 160 154 149 155 154 157 152 147 148
291 289 281 272 269 267 266 265 253 214 224 190 176 170 177 157 152 156 151 154 154 158
308 310 302 295 284 272 259 257 240 209 201 214 169 173 178 158 143 142 157 157 152 153
318 312 305 306 290 276 252 252 242 213 203 199 194 177 172 164 147 142 149 144 151 152
307 302 301 304 288 269 262 242 226 226 220 183 192 180 159 154 146 147 153 146 135 145
303 294 289 296 297 281 264 263 246 215 213 209 178 176 170 153 144 149 144 138 135 122
298 293 290 296 294 291 273 258 256 230 213 203 176 162 161 146 143 137 142 144 144 136
293 284 282 283 295 307 279 258 244 231 208 169 148 160 151 136 136 132 133 134 137 136
285 280 280 279 288 296 289 267 239 227 196 181 155 160 153 137 135 131 129 122 131 138
277 262 267 280 270 269 253 226 201 184 174 175 165 170 157 147 147 145 137 137 139 141